SB KEPS @ AMSAT $ORB08122.O Orbital Elements 08122.OSCAR
HR AMSAT ORBITAL ELEMENTS FOR OSCAR SATELLITES FROM WA5QGD FORT WORTH,TX May 1, 2008 Send Subscribe/unsubscribe to KEPS at http://www.amsat.org/mailman/listinfo/keps BID: ORB08122.O TO ALL RADIO AMATEURS BT
Satellite: AO-07 Catalog number: 07530 Epoch time: 08122.76642736 Element set: 165 Inclination: 101.4692 deg RA of node: 155.8093 deg Eccentricity: 0.0011935 Arg of perigee: 354.0385 deg Mean anomaly: 006.0534 deg Mean motion: 12.53573868 rev/day Decay rate: -2.7e-07 rev/day^2 Epoch rev: 53116 Checksum: 292
Satellite: AO-10 Catalog number: 14129 Epoch time: 08122.62036453 Element set: 501 Inclination: 025.9330 deg RA of node: 217.5751 deg Eccentricity: 0.6000234 Arg of perigee: 120.0565 deg Mean anomaly: 312.1904 deg Mean motion: 02.05869508 rev/day Decay rate: -3.5e-07 rev/day^2 Epoch rev: 18714 Checksum: 254
Satellite: UO-11 Catalog number: 14781 Epoch time: 08122.86267266 Element set: 658 Inclination: 098.1576 deg RA of node: 156.1958 deg Eccentricity: 0.0008249 Arg of perigee: 218.0707 deg Mean anomaly: 141.9949 deg Mean motion: 14.79638226 rev/day Decay rate: 1.57e-06 rev/day^2 Epoch rev: 29700 Checksum: 343
Satellite: RS-15 Catalog number: 23439 Epoch time: 08121.74106645 Element set: 0115 Inclination: 064.8170 deg RA of node: 211.7704 deg Eccentricity: 0.0148933 Arg of perigee: 131.9563 deg Mean anomaly: 229.4163 deg Mean motion: 11.27551810 rev/day Decay rate: -3.9e-07 rev/day^2 Epoch rev: 54961 Checksum: 290
Satellite: FO-29 Catalog number: 24278 Epoch time: 08121.93986294 Element set: 0784 Inclination: 098.5882 deg RA of node: 044.4041 deg Eccentricity: 0.0350775 Arg of perigee: 338.0279 deg Mean anomaly: 020.6128 deg Mean motion: 13.52937899 rev/day Decay rate: -5.0e-08 rev/day^2 Epoch rev: 57800 Checksum: 344
Satellite: SO-33 Catalog number: 25509 Epoch time: 08121.65882824 Element set: 187 Inclination: 031.4331 deg RA of node: 225.0901 deg Eccentricity: 0.0355031 Arg of perigee: 331.5902 deg Mean anomaly: 026.5781 deg Mean motion: 14.28212379 rev/day Decay rate: 2.10e-06 rev/day^2 Epoch rev: 49681 Checksum: 281
Satellite: AO-40 Catalog number: 26609 Epoch time: 08121.03965490 Element set: 50 Inclination: 007.5599 deg RA of node: 085.3238 deg Eccentricity: 0.7914604 Arg of perigee: 076.3922 deg Mean anomaly: 352.8845 deg Mean motion: 01.25584746 rev/day Decay rate: -1.09e-06 rev/day^2 Epoch rev: 3443 Checksum: 316
Satellite: VO-52 Catalog number: 28650 Epoch time: 08122.39697029 Element set: 918 Inclination: 097.7917 deg RA of node: 190.2850 deg Eccentricity: 0.0026017 Arg of perigee: 294.4492 deg Mean anomaly: 065.4003 deg Mean motion: 14.81454503 rev/day Decay rate: -1.72e-06 rev/day^2 Epoch rev: 16167 Checksum: 314
Satellite: PO-63 Catalog number: 29712 Epoch time: 08122.71423325 Element set: 408 Inclination: 097.8773 deg RA of node: 181.7675 deg Eccentricity: 0.0014202 Arg of perigee: 167.7380 deg Mean anomaly: 192.4162 deg Mean motion: 14.80129717 rev/day Decay rate: 7.78e-06 rev/day^2 Epoch rev: 7059 Checksum: 317
/EX SB KEPS @ AMSAT $ORB08122.D Orbital Elements 08122.MICROS
HR AMSAT ORBITAL ELEMENTS FOR THE MICROSATS FROM WA5QGD FORT WORTH,TX May 1, 2008 Send Subscribe/unsubscribe to KEPS at http://www.amsat.org/mailman/listinfo/keps BID: ORB08122.D TO ALL RADIO AMATEURS BT
Satellite: AO-16 Catalog number: 20439 Epoch time: 08121.55050501 Element set: 0310 Inclination: 098.2279 deg RA of node: 104.0564 deg Eccentricity: 0.0010642 Arg of perigee: 324.3861 deg Mean anomaly: 035.6617 deg Mean motion: 14.31791991 rev/day Decay rate: 4.0e-07 rev/day^2 Epoch rev: 95410 Checksum: 266
Satellite: LO-19 Catalog number: 20442 Epoch time: 08121.95507230 Element set: 0237 Inclination: 098.1984 deg RA of node: 113.1177 deg Eccentricity: 0.0011380 Arg of perigee: 320.0487 deg Mean anomaly: 039.9866 deg Mean motion: 14.32030172 rev/day Decay rate: -6.7e-07 rev/day^2 Epoch rev: 95431 Checksum: 285
Satellite: AO-27 Catalog number: 22825 Epoch time: 08121.59566144 Element set: 957 Inclination: 098.3806 deg RA of node: 083.4122 deg Eccentricity: 0.0009210 Arg of perigee: 045.9170 deg Mean anomaly: 314.2750 deg Mean motion: 14.29237447 rev/day Decay rate: 1.3e-07 rev/day^2 Epoch rev: 76097 Checksum: 302
Satellite: IO-26 Catalog number: 22826 Epoch time: 08121.65797515 Element set: 0662 Inclination: 098.3737 deg RA of node: 084.4039 deg Eccentricity: 0.0009753 Arg of perigee: 041.6550 deg Mean anomaly: 318.5372 deg Mean motion: 14.29485666 rev/day Decay rate: -5.0e-08 rev/day^2 Epoch rev: 76107 Checksum: 328
Satellite: PO-28 Catalog number: 22829 Epoch time: 08122.50729459 Element set: 933 Inclination: 098.3616 deg RA of node: 086.3330 deg Eccentricity: 0.0010108 Arg of perigee: 013.3363 deg Mean anomaly: 346.8083 deg Mean motion: 14.30187667 rev/day Decay rate: 1.1e-07 rev/day^2 Epoch rev: 76145 Checksum: 298
Satellite: GO-32 Catalog number: 25397 Epoch time: 08121.79387297 Element set: 587 Inclination: 098.3682 deg RA of node: 159.2879 deg Eccentricity: 0.0001853 Arg of perigee: 048.3436 deg Mean anomaly: 311.7915 deg Mean motion: 14.23142004 rev/day Decay rate: -5.0e-07 rev/day^2 Epoch rev: 50947 Checksum: 327
Satellite: MO-46 Catalog number: 26548 Epoch time: 08122.57817869 Element set: 86 Inclination: 064.5578 deg RA of node: 274.4962 deg Eccentricity: 0.0024512 Arg of perigee: 330.5413 deg Mean anomaly: 029.4263 deg Mean motion: 14.83254853 rev/day Decay rate: -3.5e-07 rev/day^2 Epoch rev: 41090 Checksum: 318
Satellite: NO-44 Catalog number: 26931 Epoch time: 08121.77997124 Element set: 0868 Inclination: 067.0534 deg RA of node: 046.7822 deg Eccentricity: 0.0006050 Arg of perigee: 276.6029 deg Mean anomaly: 083.4383 deg Mean motion: 14.29522113 rev/day Decay rate: 1.47e-06 rev/day^2 Epoch rev: 34363 Checksum: 306
Satellite: SO-50 Catalog number: 27607 Epoch time: 08121.70065723 Element set: 591 Inclination: 064.5592 deg RA of node: 197.8538 deg Eccentricity: 0.0084226 Arg of perigee: 288.8397 deg Mean anomaly: 070.3586 deg Mean motion: 14.71349712 rev/day Decay rate: -1.44e-06 rev/day^2 Epoch rev: 28798 Checksum: 345
Satellite: CO-55 Catalog number: 27844 Epoch time: 08121.54196560 Element set: 0294 Inclination: 098.7172 deg RA of node: 130.4702 deg Eccentricity: 0.0008893 Arg of perigee: 253.3133 deg Mean anomaly: 106.7073 deg Mean motion: 14.20576161 rev/day Decay rate: 6.2e-07 rev/day^2 Epoch rev: 25067 Checksum: 293
Satellite: CO-57 Catalog number: 27848 Epoch time: 08122.59029371 Element set: 246 Inclination: 098.7170 deg RA of node: 130.6090 deg Eccentricity: 0.0008904 Arg of perigee: 255.5328 deg Mean anomaly: 104.4852 deg Mean motion: 14.20385426 rev/day Decay rate: 4.6e-07 rev/day^2 Epoch rev: 25079 Checksum: 307
Satellite: AO-51 Catalog number: 28375 Epoch time: 08121.61030028 Element set: 88 Inclination: 098.0754 deg RA of node: 148.8488 deg Eccentricity: 0.0083802 Arg of perigee: 297.9657 deg Mean anomaly: 061.3074 deg Mean motion: 14.40605220 rev/day Decay rate: 1.1e-07 rev/day^2 Epoch rev: 20155 Checksum: 290
Satellite: CO-56 Catalog number: 28941 Epoch time: 08122.76736932 Element set: 15 Inclination: 098.1024 deg RA of node: 227.2145 deg Eccentricity: 0.0174653 Arg of perigee: 209.2913 deg Mean anomaly: 149.8477 deg Mean motion: 15.54382218 rev/day Decay rate: 2.9476e-04 rev/day^2 Epoch rev: 12282 Checksum: 326
Satellite: CP4 Catalog number: 31122 Epoch time: 08122.19692183 Element set: 326 Inclination: 098.0447 deg RA of node: 189.5257 deg Eccentricity: 0.0087931 Arg of perigee: 115.0660 deg Mean anomaly: 245.9700 deg Mean motion: 14.55119300 rev/day Decay rate: 5.53e-06 rev/day^2 Epoch rev: 5524 Checksum: 286
Satellite: CP3 Catalog number: 31128 Epoch time: 08121.85376900 Element set: 0322 Inclination: 098.0420 deg RA of node: 187.2869 deg Eccentricity: 0.0104266 Arg of perigee: 120.9407 deg Mean anomaly: 240.2072 deg Mean motion: 14.51940046 rev/day Decay rate: -4.6e-07 rev/day^2 Epoch rev: 05506 Checksum: 269
Satellite: LIBERT Catalog number: 31129 Epoch time: 08122.72667882 Element set: 932 Inclination: 098.0408 deg RA of node: 188.1604 deg Eccentricity: 0.0103322 Arg of perigee: 118.1959 deg Mean anomaly: 242.9719 deg Mean motion: 14.52030744 rev/day Decay rate: 3.40e-06 rev/day^2 Epoch rev: 5517 Checksum: 289
/EX SB KEPS @ AMSAT $ORB08122.W Orbital Elements 08122.WEATHER
HR AMSAT ORBITAL ELEMENTS FOR WEATHER SATELLITES FROM WA5QGD FORT WORTH,TX May 1, 2008 Send Subscribe/unsubscribe to KEPS at http://www.amsat.org/mailman/listinfo/keps BID: ORB08122.W TO ALL RADIO AMATEURS BT
Satellite: NOAA-10 Catalog number: 16969 Epoch time: 08121.69747066 Element set: 0103 Inclination: 098.7251 deg RA of node: 143.7568 deg Eccentricity: 0.0011781 Arg of perigee: 323.1029 deg Mean anomaly: 036.9307 deg Mean motion: 14.27357137 rev/day Decay rate: -1.42e-06 rev/day^2 Epoch rev: 12466 Checksum: 302
Satellite: NOAA-11 Catalog number: 19531 Epoch time: 08121.78698786 Element set: 0146 Inclination: 098.7954 deg RA of node: 211.7732 deg Eccentricity: 0.0011243 Arg of perigee: 199.9386 deg Mean anomaly: 160.1330 deg Mean motion: 14.14871306 rev/day Decay rate: 1.33e-06 rev/day^2 Epoch rev: 01120 Checksum: 294
Satellite: NOAA-12 Catalog number: 21263 Epoch time: 08121.82438582 Element set: 0653 Inclination: 098.7665 deg RA of node: 123.7825 deg Eccentricity: 0.0011373 Arg of perigee: 263.2854 deg Mean anomaly: 096.7032 deg Mean motion: 14.25529693 rev/day Decay rate: 1.79e-06 rev/day^2 Epoch rev: 88164 Checksum: 324
Satellite: MET-3/5 Catalog number: 21655 Epoch time: 08122.85191584 Element set: 425 Inclination: 082.5538 deg RA of node: 137.1214 deg Eccentricity: 0.0014523 Arg of perigee: 125.1899 deg Mean anomaly: 235.0587 deg Mean motion: 13.17014231 rev/day Decay rate: 5.1e-07 rev/day^2 Epoch rev: 80348 Checksum: 285
